FW2015 Weather Reports


time (UTC)temp
C
wind
direction
speed
KPH
gust
KPH
rain 1hr
cm
rain 24hr
cm
rain mn
cm
humidity
%
barometer
mb
20260905091515 23 272 3.2 17.7 0.00 0.00 0.00 82 1008.4
20260905090015 23 195 8.0 17.7 0.00 0.00 0.00 81 1008.6
20260905084512 23 266 1.6 11.3 0.00 0.00 0.00 82 1008.4
20260905083010 23 271 1.6 14.5 0.00 0.00 0.00 85 1008.4
20260905081508 23 271 6.4 16.1 0.00 0.00 0.00 82 1008.6
20260905080005 23 257 6.4 12.9 0.00 0.00 0.00 80 1008.5
20260905074503 23 278 4.8 9.7 0.00 0.00 0.00 79 1008.7
20260905073006 23 266 0.0 6.4 0.00 0.00 0.00 80 1008.8
20260905071502 23 287 0.0 1.6 0.00 0.00 0.00 77 1008.8
20260905064558 23 278 0.0 0.0 0.00 0.00 0.00 81 1009.2
20260905063058 22 236 0.0 1.6 0.00 0.00 0.00 80 1009.2
20260905061557 22 172 0.0 11.3 0.00 0.00 0.00 80 1009.2
20260905060052 24 221 4.8 22.5 0.00 0.00 0.00 81 1009.3
20260905054549 25 231 0.0 9.7 0.00 0.00 0.00 76 1009.2
20260905053046 25 230 0.0 6.4 0.00 0.00 0.00 76 1009.2
20260905051543 25 195 0.0 0.0 0.00 0.00 0.00 81 1009.2
20260905050041 25 266 0.0 1.6 0.00 0.00 0.00 81 1009.4
20260905044539 25 279 0.0 8.0 0.00 0.00 0.00 81 1009.8
20260905043037 25 217 1.6 9.7 0.00 0.00 0.00 81 1009.6
20260905041547 25 266 0.0 8.0 0.00 0.00 0.00 81 1009.7
20260905040032 26 270 1.6 8.0 0.00 0.00 0.00 80 1009.7
20260905034530 26 264 1.6 8.0 0.00 0.00 0.00 82 1009.7
20260905033030 26 275 1.6 8.0 0.00 0.00 0.00 83 1009.8
20260905031534 26 270 0.0 6.4 0.00 0.00 0.00 84 1009.6
20260905030029 26 283 3.2 8.0 0.00 0.00 0.00 85 1009.7
20260905024531 26 271 4.8 9.7 0.00 0.00 0.00 84 1009.7
20260905023028 26 271 3.2 6.4 0.00 0.00 0.00 86 1009.6
20260905021534 26 281 0.0 3.2 0.00 0.00 0.00 85 1009.7
20260905020026 26 273 0.0 1.6 0.00 0.00 0.00 85 1009.8
20260905014526 26 282 0.0 1.6 0.00 0.00 0.00 85 1009.9
20260905013025 26 280 0.0 3.2 0.00 0.00 0.00 85 1009.9
20260905011525 26 277 0.0 4.8 0.00 0.00 0.00 85 1009.9
20260905010024 26 271 1.6 6.4 0.00 0.00 0.00 84 1009.8
20260905004524 26 275 0.0 3.2 0.00 0.00 0.00 84 1009.6
20260905003026 26 274 0.0 1.6 0.00 0.00 0.00 84 1009.4
20260905001522 26 271 0.0 1.6 0.00 0.00 0.00 82 1009.0
20260905000021 27 278 0.0 1.6 0.00 0.00 0.00 83 1009.2
20260904234521 27 276 0.0 3.2 0.00 0.00 0.00 82 1009.3
20260904233019 27 269 0.0 6.4 0.00 0.00 0.00 81 1009.4
20260904231519 27 272 1.6 6.4 0.00 0.00 0.00 82 1009.5
20260904230020 27 263 0.0 4.8 0.00 0.00 0.00 79 1009.5
20260904224518 27 281 3.2 9.7 0.00 0.00 0.00 78 1009.4
20260904223018 28 285 6.4 11.3 0.00 0.00 0.00 76 1009.4
20260904221517 27 278 1.6 11.3 0.00 0.00 0.00 78 1009.3
20260904220017 27 61 0.0 4.8 0.00 0.00 0.00 83 1009.4
20260904214515 27 37 0.0 4.8 0.00 0.00 0.00 83 1009.5
20260904213016 27 56 1.6 9.7 0.00 0.00 0.00 87 1009.4
20260904211515 26 62 4.8 9.7 0.00 0.00 0.00 88 1009.3
20260904210016 26 58 0.0 9.7 0.00 0.00 0.00 87 1009.5
20260904204516 27 86 0.0 6.4 0.00 0.00 0.00 85 1009.7
20260904203015 28 91 0.0 6.4 0.00 0.00 0.00 81 1009.6
20260904201510 28 76 0.0 6.4 0.00 0.00 0.00 82 1009.8
20260904200009 27 99 0.0 9.7 0.00 0.00 0.00 82 1010.0
20260904194508 26 49 0.0 12.9 0.00 0.00 0.00 84 1010.3
20260904193010 27 39 4.8 12.9 0.00 0.00 0.00 82 1010.5
20260904191507 26 57 1.6 14.5 0.00 0.00 0.00 84 1010.5
20260904190005 27 16 3.2 12.9 0.00 0.00 0.00 82 1010.5
20260904184510 26 75 1.6 9.7 0.00 0.00 0.00 84 1010.6
20260904183004 26 72 1.6 9.7 0.00 0.00 0.00 83 1010.7
20260904181512 27 61 1.6 8.0 0.00 0.00 0.00 83 1010.8
20260904180002 28 80 0.0 8.0 0.00 0.00 0.00 72 1010.8
20260904174502 28 98 0.0 4.8 0.00 0.00 0.00 77 1010.7
20260904173000 28 110 0.0 4.8 0.00 0.00 0.00 77 1010.9
20260904171620 28 87 0.0 8.0 0.00 0.00 0.00 77 1010.7
20260904170059 29 130 0.0 8.0 0.00 0.00 0.00 73 1010.5
20260904164616 30 124 6.4 11.3 0.00 0.00 0.00 68 1010.6
20260904163055 32 131 1.6 11.3 0.00 0.00 0.00 60 1010.7
20260904161559 31 131 0.0 11.3 0.00 0.00 0.00 62 1010.8
20260904160049 30 131 1.6 17.7 0.00 0.00 0.00 68 1010.9
20260904154551 29 131 9.7 19.3 0.00 0.00 0.00 66 1011.0
20260904153054 28 131 4.8 22.5 0.00 0.00 0.00 71 1011.0
20260904151546 28 130 6.4 17.7 0.00 0.00 0.00 73 1010.9
20260904150041 28 130 3.2 19.3 0.00 0.00 0.00 74 1010.9
20260904144538 27 130 6.4 17.7 0.00 0.00 0.00 78 1010.9
20260904143035 27 245 11.3 20.9 0.00 0.00 0.00 77 1010.8
20260904141533 27 199 9.7 25.7 0.00 0.00 0.00 82 1011.0
20260904140035 26 264 17.7 29.0 0.00 0.00 0.00 82 1010.9
20260904134528 26 266 11.3 20.9 0.00 0.00 0.00 84 1010.8
20260904133034 26 250 12.9 22.5 0.00 0.00 0.00 84 1010.7
20260904131525 25 252 16.1 22.5 0.00 0.00 0.00 85 1010.7
20260904130023 25 266 12.9 20.9 0.00 0.00 0.00 86 1010.7
20260904124523 25 267 12.9 24.1 0.00 0.00 0.00 87 1010.8
20260904123022 25 280 12.9 25.7 0.00 0.00 0.00 88 1010.6
20260904121527 25 262 19.3 25.7 0.00 0.00 0.00 88 1010.8
20260904120027 24 268 14.5 25.7 0.00 0.00 0.00 90 1010.6
20260904114523 24 274 11.3 24.1 0.00 0.00 0.00 91 1010.5
20260904113021 23 290 14.5 25.7 0.00 0.00 0.00 91 1010.4
20260904111519 24 278 9.7 22.5 0.00 0.00 0.00 92 1010.2
20260904110016 24 269 11.3 22.5 0.00 0.00 0.00 91 1010.0
20260904104517 24 267 6.4 19.3 0.00 0.00 0.00 92 1010.0
20260904103015 24 310 8.0 19.3 0.00 0.00 0.00 93 1010.2
20260904101513 24 274 6.4 14.5 0.00 0.00 0.00 94 1010.2
20260904100013 24 332 4.8 17.7 0.00 0.00 0.00 94 1009.9
20260904094509 24 326 4.8 17.7 0.00 0.00 0.00 93 1009.9
20260904093009 25 271 8.0 22.5 0.00 0.00 0.00 93 1009.9